カタログに戻る

ARIANE 42P+ DEB

LostHEO
NORAD 23301·DEBRIS·🇫🇷 France

打ち上げ Oct 28, 1992 から Guiana Space Centre

Loading…

次のパス (今後24時間)

TLE

古いSource: Space-Track

元期: Jan 20, 2026, 01:29 UTC

1 23301U 92072D   26020.06240748  .00000257  00000-0  14379-2 0  9990
2 23301   7.3752 218.9951 6036712 334.7933   5.0540  3.73263776 19858

AllMySatでARIANE 42P+ DEBをリアルタイム追跡

Download on the App Store